VE2CSM-13 Weather Reports


time (UTC)temp
C
wind
direction
speed
KPH
gust
KPH
rain 1hr
cm
rain 24hr
cm
rain mn
cm
humidity
%
barometer
mb
20260507074840 4 0 0.0 0.0 0.00 0.99 0.00 96 1016.2
20260507073240 4 0 0.0 0.0 0.00 0.99 0.00 96 1016.1
20260507071640 4 0 0.0 0.0 0.00 0.99 0.00 96 1016.3
20260507070040 4 0 0.0 0.0 0.00 0.99 0.00 96 1016.4
20260507065240 4 0 0.0 0.0 0.00 0.99 0.00 96 1016.4
20260507064440 3 0 0.0 0.0 0.00 0.99 0.00 96 1016.4
20260507063640 3 0 0.0 0.0 0.00 0.99 0.00 96 1016.3
20260507062841 3 0 0.0 0.0 0.00 0.99 0.00 96 1016.5
20260507062440 3 0 0.0 0.0 0.00 0.99 0.00 96 1016.4
20260507062041 3 0 0.0 0.0 0.00 0.99 0.00 96 1016.4
20260507061641 3 0 0.0 0.0 0.00 0.99 0.00 96 1016.6
20260507061240 3 0 0.0 0.0 0.00 0.99 0.00 96 1016.7
20260507060840 3 0 0.0 0.0 0.00 0.99 0.00 96 1016.7
20260507060640 3 0 0.0 0.0 0.00 0.99 0.00 96 1016.9
20260507060441 3 0 0.0 0.0 0.00 0.99 0.00 96 1016.9
20260507060340 3 0 0.0 0.0 0.00 0.99 0.00 96 1016.9
20260507060242 3 0 0.0 0.0 0.00 0.99 0.00 96 1016.9
20260507060140 3 0 0.0 0.0 0.00 0.99 0.00 96 1016.9
20260507055407 3 0 0.0 0.0 0.00 0.99 0.00 96 1017.1
20260507052407 3 0 0.0 0.0 0.00 0.99 0.00 95 1017.6
20260507045407 3 0 0.0 0.0 0.00 0.99 0.00 95 1017.6
20260507035409 4 0 0.0 0.0 0.00 0.99 0.99 95 1017.8
20260507025408 5 0 0.0 0.0 0.00 0.99 0.99 95 1018.4
20260507015407 5 0 0.0 0.0 0.00 0.99 0.99 94 1018.5
20260507005407 5 0 0.0 0.0 0.00 1.02 0.99 93 1018.4
20260506235408 6 0 0.0 0.0 0.00 1.04 0.99 91 1018.3
20260506232210 7 0 0.0 0.0 0.00 1.09 0.99 90 1018.1
20260506223408 7 0 0.0 0.0 0.00 1.09 0.99 82 1018.1
20260506222607 7 0 0.0 0.0 0.00 1.09 0.99 86 1018.2
20260506221807 7 0 0.0 0.0 0.00 1.09 0.99 84 1018.1
20260506221407 7 0 0.0 0.0 0.03 1.09 0.99 83 1018.1
20260506221008 7 0 0.0 0.0 0.03 1.09 0.99 83 1018.1
20260506220607 7 0 0.0 0.0 0.03 1.09 0.99 83 1018.3
20260506220208 7 0 0.0 0.0 0.03 1.09 0.99 84 1018.2
20260506215807 7 0 0.0 0.0 0.03 1.09 0.99 84 1018.2
20260506215407 7 0 0.0 0.0 0.03 1.09 0.99 85 1018.2
20260506215207 7 0 0.0 0.0 0.03 1.09 0.99 85 1018.2
20260506215107 7 0 0.0 0.0 0.03 1.09 0.99 85 1018.2
20260506214743 7 0 0.0 0.0 0.03 1.09 0.99 84 1018.4
20260506204744 7 42 1.6 1.6 0.00 1.09 0.97 85 1018.5
20260506194744 7 322 0.0 1.6 0.00 1.09 0.97 83 1018.8
20260506184744 7 0 0.0 0.0 0.00 1.09 0.97 85 1018.8
20260506174744 6 315 0.0 1.6 0.10 1.09 0.97 88 1019.4
20260506164744 6 298 1.6 3.2 0.10 1.14 0.86 88 1019.9
20260506161543 6 275 1.6 3.2 0.15 1.17 0.81 89 1020.2
20260506155943 6 257 1.6 3.2 0.18 1.35 0.79 90 1020.5
20260506154343 6 261 0.0 3.2 0.23 1.32 0.76 91 1020.5
20260506153543 6 254 1.6 3.2 0.25 1.27 0.71 91 1020.5
20260506152744 6 255 1.6 4.8 0.28 1.27 0.71 90 1020.7
20260506151144 6 270 1.6 3.2 0.23 1.19 0.64 91 1020.7
20260506150343 6 271 1.6 3.2 0.25 1.19 0.64 91 1020.8
20260506145544 6 269 1.6 3.2 0.25 1.17 0.61 91 1020.8
20260506145144 6 271 1.6 3.2 0.20 1.12 0.56 91 1020.6
20260506144943 6 271 1.6 3.2 0.20 1.12 0.56 91 1020.6
20260506144745 6 267 1.6 4.8 0.20 1.09 0.53 91 1020.7
20260506144445 6 267 1.6 4.8 0.20 1.09 0.53 91 1020.7
20260506143853 7 261 1.6 3.2 0.15 1.04 0.48 91 1020.5
20260506142252 7 276 1.6 3.2 0.15 0.99 0.43 90 1020.4
20260506141852 7 284 1.6 3.2 0.13 0.97 0.41 91 1020.5
20260506141454 7 284 1.6 3.2 0.13 0.97 0.41 91 1020.5
20260506141052 7 287 1.6 3.2 0.15 0.97 0.41 91 1020.5
20260506140653 7 287 1.6 3.2 0.13 0.94 0.38 91 1020.6
20260506140252 7 287 1.6 3.2 0.13 0.94 0.38 91 1020.6
20260506140052 7 0 0.0 0.0 0.13 0.91 0.36 91 1020.5
20260506135852 7 0 0.0 0.0 0.13 0.91 0.36 91 1020.5
20260506135652 7 0 0.0 0.0 0.13 0.91 0.36 91 1020.5
20260506135552 7 0 0.0 0.0 0.13 0.91 0.36 91 1020.5
20260506135352 7 0 0.0 0.0 0.13 0.91 0.36 91 1020.1
20260506134958 7 0 0.0 0.0 0.13 0.89 0.33 91 1020.4
20260506134628 7 0 0.0 0.0 0.13 0.89 0.33 91 1020.4
20260506134556 7 0 0.0 0.0 0.13 0.89 0.33 91 1020.4
20260506134352 7 0 0.0 0.0 0.10 0.86 0.30 91 1020.2
20260506134153 7 0 0.0 0.0 0.10 0.86 0.30 91 1020.2
20260506133954 7 0 0.0 0.0 0.10 0.86 0.30 91 1020.2
20260506133602 7 0 0.0 0.0 0.10 0.86 0.30 91 1020.2
20260506132848 7 241 0.0 1.6 0.10 0.84 0.28 91 1020.2
20260506132748 7 241 0.0 1.6 0.10 0.84 0.28 91 1020.2
20260506132459 7 241 0.0 1.6 0.10 0.84 0.28 91 1020.2
20260506132221 7 241 0.0 1.6 0.10 0.84 0.28 91 1020.2
20260506132121 7 241 0.0 1.6 0.10 0.84 0.28 91 1020.2
20260506131752 7 241 0.0 1.6 0.10 0.84 0.28 91 1020.4
20260506131546 6 259 1.6 4.8 0.10 0.81 0.25 91 1020.5
20260506131347 6 259 1.6 4.8 0.10 0.81 0.25 91 1020.5
20260506131146 6 259 1.6 4.8 0.10 0.81 0.25 91 1020.5
20260506130501 6 268 1.6 3.2 0.10 0.81 0.25 90 1020.3
20260506120505 6 273 3.2 4.8 0.10 0.71 0.15 88 1020.3
20260506110500 7 287 1.6 4.8 0.05 0.61 0.05 86 1019.7
20260506100501 9 270 3.2 6.4 0.00 0.56 0.00 84 1018.8
20260506090501 10 271 3.2 9.7 0.00 0.56 0.00 82 1018.9
20260506080502 10 273 1.6 4.8 0.00 0.56 0.00 80 1018.2